Location: Capannuccia
(43.7000°N, 11.3000°E)
Time: 00:36:20
(UTC+00:00)

Daily predictions for brighter satellites

Satellite Brightness Start Highest point End
(mag) Time Altitude Azimuth Time Altitude Azimuth Time Altitude Azimuth
STARLINK-1268 4.3 00:04:29 35° NE 00:04:29 35° NE 00:06:26 10° NE
STARLINK-1303 3.5 00:05:53 72° NE 00:05:53 72° NE 00:09:18 10° NE
Cosmos 1570 Rocket 4.0 00:04:53 53° SW 00:06:10 79° WNW 00:11:28 10° NNE
STARLINK-66 4.0 00:07:08 45° N 00:07:08 45° N 00:09:56 10° NE
Cosmos 1709 Rocket 3.9 00:05:05 46° SSW 00:07:04 82° W 00:13:16 10° N
Cosmos 1763 Rocket 4.1 00:05:57 37° WSW 00:07:23 46° WNW 00:12:17 10° N
Cosmos 1400 Rocket 3.8 00:04:12 10° N 00:08:08 41° ENE 00:09:10 34° ESE
STARLINK-1316 4.1 00:09:24 41° NE 00:09:24 41° NE 00:11:37 10° NE
STARLINK-1312 3.4 00:09:13 77° NNE 00:09:13 77° NNE 00:12:49 10° NE
STARLINK-1257 4.0 00:10:14 43° NNE 00:10:14 43° NNE 00:12:31 10° NE
Cosmos 2227 Rocket 3.1 00:04:48 10° NW 00:09:46 32° WSW 00:10:10 32° WSW
STARLINK-1256 4.0 00:11:11 43° NNE 00:11:11 43° NNE 00:13:29 10° NE
STARLINK-58 4.2 00:11:42 38° ENE 00:11:42 38° ENE 00:13:49 10° NE
STARLINK-1213 4.0 00:12:02 43° NNE 00:12:02 43° NNE 00:14:21 10° NE
STARLINK-1263 4.0 00:12:53 44° NNE 00:12:53 44° NNE 00:15:14 10° NE
STARLINK-1259 3.9 00:13:47 45° NNE 00:13:47 45° NNE 00:16:10 10° NE
STARLINK-1265 3.9 00:14:09 46° NNE 00:14:09 46° NNE 00:16:37 10° NE
STARLINK-1285 3.9 00:14:38 45° NNE 00:14:38 45° NNE 00:17:03 10° NE
Cosmos 2084 Rocket 3.4 00:09:40 10° NW 00:14:10 87° SW 00:14:58 60° SSE
SL-16 R/B 3.4 00:10:23 15° SE 00:15:06 45° ENE 00:20:56 10° N
STARLINK-1296 3.9 00:16:22 47° NNE 00:16:22 47° NNE 00:18:51 10° NE
Cosmos 1758 Rocket 3.6 00:15:28 59° WSW 00:15:57 65° W 00:20:22 10° N
STARLINK-1260 3.8 00:17:14 47° NNE 00:17:14 47° NNE 00:19:45 10° NE
Cosmos 2298 Rocket 4.4 00:11:51 10° NNW 00:17:08 62° ENE 00:19:50 28° SE
STARLINK-1318 3.8 00:18:06 47° NNE 00:18:06 47° NNE 00:20:40 10° NE
STARLINK-75 3.9 00:18:02 43° NNW 00:18:03 43° NNW 00:21:11 10° NE
STARLINK-1275 3.8 00:18:59 48° N 00:18:59 48° N 00:21:35 10° NE
STARLINK-48 3.7 00:19:05 57° ESE 00:19:05 57° ESE 00:22:31 10° ENE
STARLINK-1309 3.8 00:19:50 48° N 00:19:50 48° N 00:22:27 10° NE
STARLINK-1282 3.8 00:20:42 48° N 00:20:42 48° N 00:23:20 10° NE
IRAS Rocket 4.2 00:18:06 39° SSE 00:20:17 86° ENE 00:25:51 10° NNW
STARLINK-1280 4.5 00:21:05 37° ESE 00:21:05 37° ESE 00:24:38 10° ENE
STARLINK-1283 3.8 00:20:03 51° W 00:20:51 66° NNW 00:24:58 10° NE
STARLINK-1313 3.8 00:21:38 45° NNW 00:21:38 45° NNW 00:24:27 10° NE
STARLINK-80 3.6 00:21:07 58° WNW 00:21:31 64° NNW 00:25:19 10° NE
STARLINK-1279 3.9 00:22:33 45° NNW 00:22:33 45° NNW 00:25:22 10° NE
STARLINK-1298 3.8 00:23:16 48° N 00:23:16 48° N 00:26:00 10° NE
STARLINK-1293 3.8 00:24:09 48° N 00:24:09 48° N 00:26:56 10° NE
SL-16 R/B 3.3 00:22:44 25° SE 00:24:45 32° ESE 00:29:44 10° NE
Cosmos 2208 Rocket 4.2 00:23:37 44° SW 00:25:10 65° WNW 00:30:32 10° NNE
STARLINK-1255 3.8 00:25:54 47° NNW 00:25:54 47° NNW 00:28:44 10° NE
STARLINK-22 3.8 00:26:16 46° NNW 00:26:18 46° NNW 00:29:25 10° NE
STARLINK-1297 3.5 00:26:32 58° WNW 00:26:50 60° NNW 00:30:24 10° NE
STARLINK-1311 4.1 00:28:27 37° NNW 00:28:27 37° NNW 00:31:06 10° NE
STARLINK-1286 4.3 00:29:54 39° SE 00:29:54 39° SE 00:33:33 10° ENE
Cosmos 2285 Rocket 4.1 00:23:40 10° NNW 00:29:52 56° WSW 00:31:55 39° SSW
MOZ.5/SAFIR/RUBIN 5/SL-8 4.0 00:29:16 35° SE 00:31:07 63° ENE 00:35:42 10° N
USA 81 4.5 00:30:17 39° SW 00:31:39 49° W 00:36:47 10° N
USA 215 3.2 00:28:06 20° SSE 00:32:46 63° SW 00:39:16 10° NW
CZ-2D R/B 2.7 00:27:57 10° NNE 00:32:58 46° E 00:35:02 30° SSE
STARLINK-1281 4.3 00:33:11 40° SE 00:33:11 40° SE 00:36:53 10° ENE
Cosmos-2242 3.1 00:29:54 10° NNW 00:34:04 53° W 00:34:23 52° WSW
Cosmos 1953 Rocket 3.5 00:33:32 58° SSW 00:34:19 76° W 00:38:44 10° N
Meteor 2-10 Rocket 4.1 00:29:51 10° NNW 00:34:30 37° W 00:35:16 35° WSW
Cosmos 2221 3.9 00:32:52 10° N 00:36:52 34° ENE 00:39:28 18° SE
BREEZE-M R/B 4.4 00:32:10 10° WNW 00:37:28 36° N 00:40:29 10° ENE
STARLINK-1310 4.1 00:37:58 44° SE 00:37:58 44° SE 00:41:54 10° ENE
STARLINK-1029 3.2 00:39:04 64° N 00:39:04 64° N 00:41:58 10° NE
STARLINK-34 3.5 00:40:01 49° NNW 00:40:01 49° NNW 00:42:59 10° NE
CZ-4C R/B 3.9 00:38:34 35° SE 00:40:18 65° ENE 00:44:43 10° N
STARLINK-60 4.2 00:38:19 10° NW 00:41:23 42° NNE 00:44:27 10° ESE
GP-B 3.1 00:37:19 10° N 00:41:47 81° E 00:42:59 48° S
Cosmos 540 Rocket 4.1 00:41:07 33° WSW 00:42:52 45° WNW 00:47:49 10° N
STARLINK-1319 3.9 00:42:43 48° SSE 00:42:53 48° SE 00:46:53 10° ENE
STARLINK-1272 4.1 00:42:02 35° WNW 00:42:57 44° NNW 00:46:22 10° NE
Cosmos 1315 Rocket 4.1 00:40:01 10° N 00:43:41 36° ENE 00:45:45 21° SE
STARLINK-62 3.6 00:43:45 46° NW 00:43:50 46° NNW 00:46:48 10° NE
Cosmos 1842 Rocket 4.3 00:39:32 10° N 00:43:53 49° ENE 00:46:05 26° SE
Cosmos 2360 Rocket 4.0 00:43:58 13° SE 00:47:09 21° E 00:51:16 10° NE
STARLINK-1277 3.8 00:47:31 51° SSE 00:47:51 53° SE 00:51:54 10° ENE
STARLINK-1307 4.3 00:46:48 31° WNW 00:48:06 44° NNW 00:51:42 10° NE
Helios 1B rocket 4.2 00:46:14 10° NNW 00:49:20 21° WNW 00:50:24 19° W
STARLINK-1290 4.4 00:50:11 28° WNW 00:51:39 42° NNW 00:55:12 10° NE
Cosmos 2058 4.4 00:50:48 21° SE 00:52:46 31° E 00:56:30 10° NNE
STARLINK-1276 3.7 00:52:19 53° S 00:52:50 58° SE 00:56:55 10° ENE
Cosmos 1980 Rocket 2.8 00:51:50 28° WSW 00:54:24 46° WNW 00:59:51 10° NNE
Cosmos 2074 Rocket 4.0 00:51:22 33° S 00:54:25 88° W 01:00:44 10° N
Shenzhou-11 Module 4.3 00:56:40 13° E 00:56:40 13° E 00:57:03 10° E
STARLINK-1305 3.6 00:57:04 53° S 00:57:47 63° SE 01:01:53 10° ENE
STARLINK-1306 3.6 00:57:24 52° SSW 00:58:14 68° SE 01:02:25 10° ENE
Cosmos 1455 4.2 00:58:11 10° NW 01:00:05 15° W 01:00:05 15° W
CZ-4B R/B 3.9 00:56:39 10° NNE 01:01:52 61° ESE 01:04:34 28° S
STARLINK-1262 3.6 01:01:53 50° SSW 01:02:47 69° SE 01:06:55 10° ENE
Meteor 1-11 4.5 01:03:54 33° SW 01:06:14 54° WNW 01:11:42 10° N
STARLINK-1300 3.5 01:06:40 47° SW 01:07:45 75° SE 01:11:54 10° ENE
ADEOS II 3.1 01:06:06 10° NNE 01:11:02 40° E 01:14:39 17° SSE
Cosmos 2263 Rocket 2.1 01:06:35 10° NNW 01:12:10 73° WSW 01:15:58 21° SSE
STARLINK-1295 3.5 01:11:26 43° SW 01:12:42 82° SE 01:16:52 10° ENE
NOSS 2-1 (C) 2.9 01:12:04 54° SW 01:12:45 80° NW 01:16:19 10° NE
UNK 3.7 01:11:40 35° S 01:13:32 66° WSW 01:18:06 10° NNW
STARLINK-29 4.3 01:11:07 10° NW 01:14:10 41° NNE 01:17:13 10° E
IRS-1D 4.1 01:09:12 10° NNE 01:14:21 54° E 01:17:31 22° S
STARLINK-64 3.7 01:14:12 34° W 01:15:29 56° NNW 01:19:02 10° NE
SL-4 R/B 2.3 01:11:01 10° WNW 01:15:53 87° NE 01:20:32 10° ESE
AQUA 3.8 01:11:15 10° NNE 01:16:03 79° ESE 01:18:23 30° S
NOSS 2-1 (D) 3.0 01:16:50 47° WSW 01:17:39 69° NW 01:21:13 10° NNE
STARLINK-1287 3.5 01:16:12 39° SW 01:17:41 88° SE 01:21:50 10° NE
USA 229 DEB 3.8 01:10:40 10° NW 01:18:00 81° SW 01:25:39 10° SSE
USA 229 3.8 01:10:46 10° NW 01:18:06 81° SW 01:25:45 10° SSE
NOSS 3-1 (C) 4.1 01:11:16 10° NW 01:18:55 75° WSW 01:27:37 10° SSE
Cosmos 2184 Rocket 4.1 01:16:26 29° SSW 01:19:37 60° WNW 01:25:43 10° N
NPP 3.6 01:14:36 10° NNE 01:20:01 80° WNW 01:22:54 29° SSW
ARIANE 5 R/B 4.1 01:16:24 10° NE 01:20:43 28° E 01:24:59 10° SSE
STARLINK-25 4.4 01:20:21 26° SSE 01:20:44 27° SE 01:23:42 10° ENE
CZ-4C R/B 4.4 01:18:38 10° WNW 01:22:39 20° NNW 01:27:12 10° NNE
Cosmos 1892 2.9 01:21:53 31° SSE 01:23:32 64° E 01:27:17 10° NNE
BREEZE-M DEB (TANK) 3.1 01:23:13 26° NW 01:23:51 34° N 01:26:28 10° ENE
STARLINK-1299 3.8 01:24:06 29° WSW 01:26:11 71° NNW 01:30:27 10° NE
NOSS 3-1 (A) 4.1 01:19:26 10° NW 01:27:06 87° NE 01:35:51 10° SE
STARLINK-1302 3.6 01:25:46 32° WSW 01:27:38 79° NNW 01:31:48 10° NE
Cosmos 1610 Rocket 4.4 01:24:10 26° SSW 01:27:52 76° W 01:34:06 10° N
BREEZE-M DEB (TANK) 3.5 01:26:45 10° NW 01:28:48 25° N 01:31:08 10° ENE
STARLINK-24 4.4 01:28:48 29° S 01:30:02 36° SE 01:33:44 10° ENE
Cosmos 1869 3.2 01:27:33 10° NNW 01:31:24 65° W 01:33:00 32° SSW
STARLINK-1273 3.7 01:30:32 28° WSW 01:32:36 74° NW 01:36:46 10° NE
Cosmos 2322 Rocket 2.1 01:29:42 27° SSW 01:32:56 87° WNW 01:38:36 10° NNE
In-Cosmos 22 Rocket 4.1 01:31:02 23° S 01:34:37 90° W 01:40:07 10° N
STARLINK-1288 3.8 01:35:19 25° WSW 01:37:35 68° NNW 01:41:44 10° NE
STARLINK-61 3.4 01:35:51 31° WSW 01:37:39 85° NNW 01:41:36 10° NE
STARLINK-81 4.1 01:38:56 29° S 01:40:08 38° SE 01:43:32 10° ENE
Resurs 1-4 Rocket 2.7 01:36:49 10° N 01:41:51 44° WNW 01:44:54 22° SW
STARLINK-54 3.8 01:40:39 31° S 01:41:54 44° SE 01:45:22 10° ENE
Cosmos 1076 Rocket 3.5 01:39:51 26° SSW 01:42:16 78° W 01:46:40 10° N
STARLINK-1308 3.9 01:40:08 22° WSW 01:42:37 63° NNW 01:46:45 10° NE
STARLINK-77 3.9 01:42:03 29° S 01:43:22 41° SE 01:46:48 10° ENE
Cosmos 2151 3.9 01:40:30 13° SSE 01:44:05 44° E 01:48:11 10° NNE
Cosmos 1125 Rocket 4.0 01:41:13 10° NW 01:46:02 39° WSW 01:48:54 21° SSW
H-2A R/B 4.0 01:42:20 10° SE 01:46:14 31° ENE 01:50:12 10° N
STARLINK-79 3.8 01:46:45 28° SSW 01:48:14 46° SE 01:51:44 10° ENE
Cosmos 962 Rocket 4.5 01:44:45 18° S 01:49:33 87° W 01:55:48 10° N
STARLINK-52 3.2 01:46:21 10° NW 01:49:34 70° NNE 01:52:45 10° ESE
STARLINK-78 3.7 01:48:20 28° SSW 01:49:52 48° SE 01:53:23 10° ENE
STARLINK-1017 4.4 01:47:56 23° S 01:49:57 39° SE 01:53:49 10° ENE
STARLINK-57 3.6 01:49:58 28° SSW 01:51:34 53° SE 01:55:06 10° ENE
Cosmos 1408 2.6 01:49:31 23° S 01:51:45 85° E 01:55:26 10° N
STARLINK-1304 4.1 01:49:41 18° WSW 01:52:35 55° NNW 01:56:40 10° NE
STARLINK-49 3.6 01:51:26 27° SSW 01:53:05 51° SE 01:56:37 10° ENE
Cosmos 2154 Rocket 4.3 01:49:51 20° SW 01:53:59 51° WNW 02:00:03 10° N
STARLINK-27 3.6 01:53:02 27° SSW 01:54:44 53° SE 01:58:18 10° ENE
STARLINK-1023 4.3 01:52:43 22° SSW 01:54:54 42° SE 01:58:50 10° ENE
GEOS 3 Rocket 3.6 01:50:31 10° SSE 01:55:38 65° SW 02:00:54 10° NW
STARLINK-74 3.5 01:54:35 26° SSW 01:56:21 55° SE 01:59:55 10° ENE
STARLINK-39 3.5 01:56:10 26° SSW 01:57:59 57° SE 02:01:34 10° ENE
Cosmos 1825 2.4 01:55:27 16° S 01:58:20 65° E 02:02:04 10° NNE
Cosmos 2237 4.3 01:54:30 19° SSW 01:58:46 84° ESE 02:04:32 10° NNE
STARLINK-1278 4.5 01:55:21 14° W 01:58:49 46° NNW 02:02:57 10° NE
SL-16 R/B 3.4 01:55:29 19° SW 01:58:50 31° W 02:04:15 10° NW
STARLINK-31 3.4 01:57:45 25° SSW 01:59:39 60° SE 02:03:14 10° ENE
STARLINK-1007 4.2 01:57:32 22° SSW 01:59:54 46° SE 02:03:53 10° ENE
SL-08 R/B 3.2 01:55:59 10° SSE 02:00:37 87° ENE 02:05:15 10° NNW
STARLINK-69 3.3 01:59:20 25° SW 02:01:17 67° SE 02:04:52 10° ENE
STARLINK-21 3.3 02:00:55 24° SW 02:02:55 65° SE 02:06:31 10° ENE
STARLINK-45 3.2 02:02:35 23° SW 02:04:42 74° SE 02:08:19 10° ENE
STARLINK-1048 4.0 02:02:18 21° SSW 02:04:50 51° SE 02:08:52 10° ENE
IRS-P3 4.1 02:00:05 10° N 02:05:25 77° WNW 02:09:51 15° SSW
Cosmos 1844 Rocket 3.0 02:01:08 10° NNW 02:06:44 69° ENE 02:12:16 10° SSE
STARLINK-76 3.3 02:05:36 22° SW 02:07:48 72° SE 02:11:26 10° ENE
STARLINK-70 3.3 02:05:59 22° SW 02:08:16 77° SE 02:11:56 10° ENE
SL-16 R/B 3.0 02:04:36 16° WSW 02:08:43 40° WNW 02:14:04 10° NNE
STARLINK-23 3.2 02:07:11 21° SW 02:09:26 75° SE 02:13:04 10° ENE
STARLINK-1049 3.9 02:07:06 20° SSW 02:09:49 56° SE 02:13:53 10° ENE
STARLINK-32 3.2 02:08:37 21° SW 02:10:53 77° SE 02:14:28 10° ENE
STARLINK-40 3.2 02:10:18 20° SW 02:12:41 79° SE 02:16:19 10° ENE
CZ-2D R/B 3.5 02:08:35 10° N 02:12:45 25° WNW 02:16:21 12° WSW
COSMOS 2428 4.1 02:08:10 10° SSE 02:13:12 34° ESE 02:18:16 10° NE
CZ-4C R/B 4.3 02:10:44 10° SE 02:14:11 43° ENE 02:17:39 10° N
Cosmos 2221 4.0 02:10:53 10° NW 02:14:13 22° W 02:16:17 16° SW
STARLINK-44 3.2 02:11:49 19° SW 02:14:15 82° SE 02:17:54 10° ENE
STARLINK-1051 3.8 02:11:51 18° SW 02:14:45 61° SE 02:18:51 10° ENE
Cosmos 773 Rocket 4.0 02:11:02 15° SSW 02:15:27 85° WNW 02:20:47 10° NNE
STARLINK-37 3.2 02:13:33 19° SW 02:16:05 90° NW 02:19:44 10° NE
STARLINK-60 4.0 02:14:41 10° WNW 02:17:20 24° SW 02:19:58 10° S
STARLINK-36 3.2 02:14:56 18° SW 02:17:30 87° SE 02:21:09 10° NE
FALCON 9 DEB 3.2 02:15:26 10° NW 02:18:54 80° NE 02:22:21 10° ESE
STARLINK-63 3.2 02:18:10 17° WSW 02:20:53 84° NW 02:24:30 10° NE
STARLINK-35 3.2 02:19:32 17° SW 02:22:14 86° NW 02:25:49 10° NE
STARLINK-51 3.2 02:21:14 16° WSW 02:24:03 83° NNW 02:27:40 10° NE
Cosmos 2366 rocket 4.0 02:18:08 10° S 02:24:22 88° W 02:30:44 10° N
STARLINK-1028 3.7 02:21:25 16° SW 02:24:42 73° SE 02:28:50 10° ENE
STARLINK-30 3.3 02:22:49 15° WSW 02:25:43 81° NW 02:29:21 10° NE
STARLINK-72 3.3 02:24:13 15° WSW 02:27:06 78° NW 02:30:41 10° NE
Shenzhou-11 Module 1.3 02:26:47 12° W 02:29:01 62° S 02:31:26 10° ESE
STARLINK-1021 3.6 02:26:14 14° SW 02:29:42 79° SE 02:33:51 10° ENE
Cosmos 2058 4.5 02:27:00 13° WSW 02:29:43 22° WNW 02:33:03 10° NNW
STARLINK-59 3.4 02:27:25 14° WSW 02:30:27 70° NNW 02:34:01 10° NE
Cosmos 2360 Rocket 2.5 02:25:44 13° SW 02:30:39 58° WNW 02:36:14 10° NNE
Cosmos 1933 3.8 02:27:38 10° N 02:31:40 63° E 02:35:38 10° SSE
STARLINK-1010 3.7 02:28:17 14° SW 02:31:57 86° SE 02:36:13 10° NE
STARLINK-56 3.4 02:29:04 13° WSW 02:32:13 72° NNW 02:35:51 10° NE
STARLINK-73 3.4 02:30:38 13° WSW 02:33:51 69° NNW 02:37:28 10° NE
STARLINK-1019 3.6 02:30:59 13° SW 02:34:39 86° SE 02:38:48 10° NE
Cosmos 1328 Rocket 3.7 02:30:49 10° N 02:35:13 79° E 02:39:34 10° SSE
STARLINK-38 3.5 02:32:12 12° WSW 02:35:29 67° NNW 02:39:06 10° NE
STARLINK-65 3.5 02:33:46 12° WSW 02:37:07 65° NNW 02:40:45 10° NE
STARLINK-1368 4.5 02:33:13 10° NW 02:37:10 53° NNE 02:41:07 10° ESE
STARLINK-68 3.6 02:34:23 11° WSW 02:37:50 61° NNW 02:41:27 10° NE
STARLINK-53 3.6 02:35:24 11° WSW 02:38:50 61° NNW 02:42:27 10° NE
STARLINK-1012 3.6 02:35:47 12° SW 02:39:38 88° NNW 02:43:48 10° NE
BREEZE-M DEB (TANK) 4.3 02:35:23 10° SSW 02:39:59 26° SSE 02:42:38 10° E
STARLINK-50 3.6 02:37:26 11° WSW 02:41:06 66° NNW 02:44:55 10° NE
STARLINK-1369 4.3 02:37:39 10° NW 02:41:38 57° NNE 02:45:35 10° ESE
Cosmos 2333 Rocket 2.4 02:38:28 10° SSW 02:44:04 72° ESE 02:49:45 10° NNE
Meteor 1-28 Rocket 3.7 02:41:42 10° SSW 02:45:14 39° W 02:48:46 10° NNW
STARLINK-1372 4.2 02:41:49 10° NW 02:45:46 60° NNE 02:49:41 10° ESE
STARLINK-71 3.9 02:41:54 10° WSW 02:45:52 61° NNW 02:49:52 10° NE
Landsat 5 3.6 02:41:56 10° SSE 02:46:26 83° WSW 02:50:54 10° NNW
Cosmos 2219 Rocket 2.4 02:42:38 10° SSW 02:48:11 73° ESE 02:53:46 10° NNE
STARLINK-1026 3.7 02:45:27 10° WSW 02:49:35 76° NNW 02:53:44 10° NE
Cosmos 2322 3.8 02:43:54 10° SSW 02:49:36 74° WNW 02:55:22 10° NNE
STARLINK-29 4.0 02:47:29 10° WNW 02:50:11 25° SW 02:52:50 10° SSE
Cosmos 1727 Rocket 4.0 02:44:16 10° N 02:50:27 79° W 02:56:37 10° S
STARLINK-1378 4.1 02:46:31 10° NW 02:50:32 65° NNE 02:54:31 10° ESE
ADEOS II 3.2 02:46:06 10° N 02:50:33 29° WNW 02:54:59 10° WSW
IDEFIX/ARIANE 42P 2.6 02:49:07 10° N 02:54:24 76° WNW 02:59:37 10° SSW
STARLINK-1013 3.8 02:50:27 10° WSW 02:54:34 70° NNW 02:58:44 10° NE
Cosmos 1782 4.0 02:50:51 10° N 02:54:44 46° ENE 02:58:33 10° SSE
ERS-2 2.8 02:51:27 10° SSW 02:54:49 35° W 02:58:13 10° NNW
STARLINK-1379 3.9 02:51:01 10° NW 02:55:03 70° NNE 02:59:04 10° ESE
SL-4 R/B 3.5 02:51:38 10° W 02:55:07 20° SW 02:58:27 10° S
Cosmos 1606 2.9 02:52:05 10° NNW 02:55:45 49° W 02:59:23 10° S
STARLINK-25 4.0 02:54:18 10° WSW 02:57:37 44° NNW 03:00:59 10° NE
ATLAS 5 CENTAUR R/B 2.9 02:54:57 10° S 02:58:36 33° ESE 03:02:37 10° NE
STARLINK-1329 3.8 02:54:50 10° NW 02:58:53 74° NNE 03:02:55 10° ESE
Cosmos 2333 4.3 02:53:30 10° SW 02:59:02 66° WNW 03:04:41 10° NNE
STARLINK-1009 3.9 02:55:27 10° WSW 02:59:33 65° NNW 03:03:42 10° NE
ARIANE 5 R/B 3.3 02:55:19 10° N 02:59:52 36° WNW 03:04:22 10° SW
BREEZE-M R/B 2.2 02:57:33 10° WNW 03:00:34 67° NNE 03:02:57 10° ESE
